Weather History for Salon, France

Change the Weather History Date:

Monday, December 3, 2012

  Actual Average (LFML) Record (LFML)
Temperature  
Mean Temperature 44 °F -  
Max Temperature 51 °F 55 °F 66 °F (2003)
Min Temperature 37 °F 41 °F 28 °F (2010)
Degree Days  
Heating Degree Days 21    
Moisture  
Dew Point 28 °F    
Average Humidity 59    
Maximum Humidity 87    
Minimum Humidity 34    
Precipitation  
Precipitation 0.00 in - - ()
Sea Level Pressure  
Sea Level Pressure 30.10 in    
Wind  
Wind Speed 11 mph ()    
Max Wind Speed 22 mph    
Max Gust Speed -    
Visibility 6.2 miles    
Events      
Averages and records for this station are not official NWS values.
T = Trace of Precipitation, MM = Missing Value Source: Averaged Metar Reports

Daily Weather History Graph

Daily Weather History Graph

Search for Another Location

Airport:

Trip Planner

Search our weather history database for the weather conditions in past years. The results will help you decide how hot, cold, wet, or windy it might be!

Date:

Astronomy

Dec. 03, 2012 Rise Set
Actual Time 7:55 AM CET 5:03 PM CET
Civil Twilight 7:23 AM CET 5:35 PM CET
Nautical Twilight 6:47 AM CET 6:11 PM CET
Astronomical Twilight 6:12 AM CET 6:46 PM CET
Moon 9:39 PM CET (12/3) 11:06 AM CET (12/3)
Length of Visible Light 10h 12m
Length of Day
9h 08m
Waning Gibbous, 80% of the Moon is Illuminated
Dec 3
Waning Gibbous
Dec 6
Last Quarter
Dec 13
New
Dec 20
First Quarter
Dec 28
Full

Hourly Weather History & Observations

Time (CET) Temp. Windchill Dew Point Humidity Pressure Visibility Wind Dir Wind Speed Gust Speed Precip Events Conditions
12:00 AM 39.2 °F 32.0 °F 26.6 °F 61% 30.09 in 6.2 mi NW 11.5 mph - N/A   Unknown
12:30 AM 39.2 °F 32.0 °F 26.6 °F 61% 30.09 in 6.2 mi NW 11.5 mph - N/A   Unknown
1:00 AM 39.2 °F 32.5 °F 26.6 °F 61% 30.09 in 6.2 mi NW 10.4 mph - N/A   Unknown
1:30 AM 39.2 °F 31.2 °F 26.6 °F 61% 30.09 in 6.2 mi NW 13.8 mph - N/A   Unknown
2:00 AM 39.2 °F 29.8 °F 26.6 °F 61% 30.09 in 6.2 mi NW 18.4 mph - N/A   Unknown
2:30 AM 39.2 °F 29.0 °F 24.8 °F 56% 30.09 in 6.2 mi NW 21.9 mph - N/A   Unknown
3:00 AM 39.2 °F 29.0 °F 24.8 °F 56% 30.09 in 6.2 mi NNW 21.9 mph - N/A   Unknown
3:30 AM 39.2 °F 29.3 °F 24.8 °F 56% 30.09 in 6.2 mi NNW 20.7 mph - N/A   Unknown
4:00 AM 39.2 °F 29.6 °F 26.6 °F 61% 30.09 in 6.2 mi NNW 19.6 mph - N/A   Unknown
4:30 AM 37.4 °F 27.5 °F 26.6 °F 65% 30.09 in 6.2 mi NNW 18.4 mph - N/A   Unknown
5:00 AM 37.4 °F 27.2 °F 26.6 °F 65% 30.09 in 6.2 mi NNW 19.6 mph - N/A   Unknown
5:30 AM 37.4 °F 26.6 °F 26.6 °F 65% 30.09 in 6.2 mi NNW 21.9 mph - N/A   Unknown
6:00 AM 37.4 °F 26.6 °F 26.6 °F 65% 30.09 in 6.2 mi NNW 21.9 mph - N/A   Unknown
6:30 AM 37.4 °F 26.6 °F 26.6 °F 65% 30.09 in 6.2 mi NNW 21.9 mph - N/A   Unknown
7:00 AM 37.4 °F 27.2 °F 26.6 °F 65% 30.12 in 6.2 mi NNW 19.6 mph - N/A   Unknown
7:30 AM 37.4 °F 27.2 °F 26.6 °F 65% 30.12 in 6.2 mi NNW 19.6 mph - N/A   Unknown
8:00 AM 37.4 °F 30.3 °F 26.6 °F 65% 30.12 in 6.2 mi NNW 10.4 mph - N/A   Unknown
8:30 AM 37.4 °F - 24.8 °F 60% 30.15 in 6.2 mi Variable 2.3 mph - N/A   Unknown
9:00 AM 39.2 °F 35.0 °F 24.8 °F 56% 30.15 in 6.2 mi West 5.8 mph - N/A   Unknown
9:30 AM 41.0 °F 39.0 °F 26.6 °F 57% 30.15 in 6.2 mi Variable 3.5 mph - N/A   Unknown
10:00 AM 42.8 °F 40.1 °F 24.8 °F 49% 30.15 in 6.2 mi West 4.6 mph - N/A   Unknown
10:30 AM 44.6 °F 42.2 °F 24.8 °F 46% 30.18 in 6.2 mi West 4.6 mph - N/A   Unknown
11:00 AM 44.6 °F 40.2 °F 21.2 °F 39% 30.15 in 6.2 mi NW 8.1 mph - N/A   Unknown
11:30 AM 48.2 °F - 23.0 °F 37% 30.15 in 6.2 mi WNW 9.2 mph - N/A   Unknown
12:00 PM 48.2 °F - 21.2 °F 34% 30.15 in 6.2 mi NW 10.4 mph - N/A   Unknown
12:30 PM 50.0 °F - 23.0 °F 35% 30.15 in 6.2 mi NW 10.4 mph - N/A   Unknown
1:00 PM 50.0 °F - 23.0 °F 35% 30.15 in 6.2 mi NW 8.1 mph - N/A   Unknown
1:30 PM 51.8 °F - 24.8 °F 35% 30.15 in 6.2 mi NW 10.4 mph - N/A   Unknown
2:00 PM 50.0 °F - 26.6 °F 40% 30.12 in 6.2 mi NW 10.4 mph - N/A   Unknown
2:30 PM 50.0 °F - 28.4 °F 43% 30.12 in 6.2 mi NW 10.4 mph - N/A   Unknown
3:00 PM 51.8 °F - 28.4 °F 41% 30.09 in 6.2 mi NNW 9.2 mph - N/A   Unknown
3:30 PM 50.0 °F - 30.2 °F 47% 30.09 in 6.2 mi NW 9.2 mph - N/A   Unknown
4:00 PM 48.2 °F - 30.2 °F 50% 30.09 in 6.2 mi West 3.5 mph - N/A   Unknown
4:30 PM 48.2 °F - 30.2 °F 50% 30.09 in 6.2 mi WNW 4.6 mph - N/A   Unknown
5:00 PM 46.4 °F 44.3 °F 30.2 °F 53% 30.09 in 6.2 mi WSW 4.6 mph - N/A   Unknown
5:30 PM 46.4 °F 45.2 °F 30.2 °F 53% 30.09 in 6.2 mi West 3.5 mph - N/A   Unknown
6:00 PM 44.6 °F 43.1 °F 30.2 °F 57% 30.09 in 6.2 mi NW 3.5 mph - N/A   Unknown
6:30 PM 42.8 °F 40.1 °F 30.2 °F 61% 30.09 in 6.2 mi SSW 4.6 mph - N/A   Unknown
7:00 PM 41.0 °F 38.0 °F 30.2 °F 65% 30.09 in 6.2 mi SSW 4.6 mph - N/A   Unknown
7:30 PM 39.2 °F - 30.2 °F 70% 30.09 in 6.2 mi Calm Calm - N/A   Unknown
8:00 PM 37.4 °F 33.8 °F 32.0 °F 81% 30.09 in 6.2 mi ENE 4.6 mph - N/A   Unknown
8:30 PM 37.4 °F - 32.0 °F 81% 30.09 in 6.2 mi Variable 2.3 mph - N/A   Unknown
9:00 PM 39.2 °F 37.0 °F 33.8 °F 81% 30.09 in 6.2 mi Variable 3.5 mph - N/A   Unknown
9:30 PM 39.2 °F - 33.8 °F 81% 30.06 in 6.2 mi North 2.3 mph - N/A   Unknown
10:00 PM 39.2 °F - 32.0 °F 75% 30.06 in 6.2 mi NNE 2.3 mph - N/A   Mostly Cloudy
10:30 PM 37.4 °F - 32.0 °F 81% 30.06 in 6.2 mi Variable 2.3 mph - N/A   Unknown
11:00 PM 37.4 °F - 32.0 °F 81% 30.06 in 6.2 mi Calm Calm - N/A   Unknown
11:30 PM 37.4 °F - 33.8 °F 87% 30.04 in 6.2 mi Calm Calm - N/A   Overcast